• In Moldova, Republic
  • List of Countries
  • For 7 days
  • Water Temperature
  • Satellite Maps
  • Weather Map
  • Weather Widgets
  • user-avatar
    Login

    Hourly Weather Sidi Bu-l-Abbas

    Today, 26 February, Sunday

    Time Temperature Precipitation Wind Pressure Humidity
    00:00 +9°C° 0 mm 2 mps 723 mmHg 91%
    01:00 +9°C° 0 mm 2 mps 723 mmHg 91%
    02:00 +9°C° 0 mm 2 mps 723 mmHg 91%
    03:00 +9°C° 0 mm 2 mps 723 mmHg 91%
    04:00 +9°C° 0 mm 2 mps 723 mmHg 90%
    05:00 +8°C° 0 mm 2 mps 723 mmHg 90%
    06:00 +8°C° 0 mm 2 mps 723 mmHg 90%
    07:00 +11°C° 0 mm 1 mps 723 mmHg 83%
    08:00 +13°C° 0 mm 1 mps 724 mmHg 77%
    09:00 +14°C° 0 mm 1 mps 724 mmHg 70%
    10:00 +16°C° 0 mm 1 mps 724 mmHg 64%
    11:00 +17°C° 0 mm 2 mps 724 mmHg 58%
    12:00 +18°C° 0 mm 2 mps 724 mmHg 51%
    13:00 +19°C° 0 mm 2 mps 723 mmHg 51%
    14:00 +19°C° 0 mm 2 mps 723 mmHg 50%
    15:00 +19°C° 0 mm 3 mps 722 mmHg 49%
    16:00 +17°C° 0 mm 2 mps 722 mmHg 61%
    17:00 +14°C° 0 mm 2 mps 722 mmHg 72%
    18:00 +12°C° 0 mm 1 mps 721 mmHg 84%
    19:00 +11°C° 0 mm 1 mps 721 mmHg 86%
    20:00 +10°C° 0 mm 1 mps 721 mmHg 89%
    21:00 +8°C° 0 mm 0 mps 722 mmHg 91%
    22:00 +8°C° 0 mm 0 mps 722 mmHg 90%
    23:00 +9°C° 0 mm 1 mps 722 mmHg 90%

    Tomorrow, 27 February, Monday

    Time Temperature Precipitation Wind Pressure Humidity
    00:00 +9°C° 0 mm 1 mps 721 mmHg 89%
    01:00 +9°C° 0 mm 1 mps 721 mmHg 88%
    02:00 +9°C° 0 mm 1 mps 721 mmHg 88%
    03:00 +9°C° 0 mm 1 mps 720 mmHg 87%
    04:00 +9°C° 0 mm 1 mps 720 mmHg 86%
    05:00 +9°C° 0 mm 1 mps 720 mmHg 85%
    06:00 +9°C° 0 mm 1 mps 720 mmHg 84%
    07:00 +11°C° 0 mm 1 mps 721 mmHg 75%
    08:00 +14°C° 0 mm 1 mps 721 mmHg 65%
    09:00 +18°C° 0 mm 1 mps 722 mmHg 55%
    10:00 +18°C° 0 mm 2 mps 722 mmHg 52%
    11:00 +19°C° 0 mm 3 mps 722 mmHg 49%
    12:00 +20°C° 0 mm 3 mps 722 mmHg 45%
    13:00 +20°C° 0 mm 4 mps 721 mmHg 47%
    14:00 +20°C° 0 mm 4 mps 721 mmHg 49%
    15:00 +20°C° 0 mm 4 mps 720 mmHg 51%
    16:00 +17°C° 0 mm 3 mps 720 mmHg 63%
    17:00 +14°C° 0 mm 3 mps 720 mmHg 74%
    18:00 +13°C° 0 mm 2 mps 720 mmHg 86%
    19:00 +12°C° 0 mm 2 mps 720 mmHg 88%
    20:00 +10°C° 0 mm 2 mps 720 mmHg 90%
    21:00 +9°C° 0 mm 2 mps 720 mmHg 92%
    22:00 +9°C° 0 mm 2 mps 720 mmHg 92%
    23:00 +9°C° 0 mm 2 mps 720 mmHg 91%

    Day after tomorrow, 28 February, Tuesday

    Time Temperature Precipitation Wind Pressure Humidity
    00:00 +8°C° 0 mm 2 mps 720 mmHg 91%
    01:00 +8°C° 0 mm 2 mps 720 mmHg 91%
    02:00 +8°C° 0 mm 2 mps 720 mmHg 91%
    03:00 +8°C° 0 mm 2 mps 720 mmHg 91%
    04:00 +8°C° 0 mm 2 mps 720 mmHg 91%
    05:00 +7°C° 0 mm 2 mps 720 mmHg 91%
    06:00 +7°C° 0 mm 2 mps 720 mmHg 91%
    07:00 +10°C° 0 mm 2 mps 721 mmHg 83%
    08:00 +13°C° 0 mm 2 mps 721 mmHg 74%
    09:00 +16°C° 0 mm 2 mps 722 mmHg 65%
    10:00 +17°C° 0 mm 3 mps 722 mmHg 59%
    11:00 +18°C° 0 mm 3 mps 722 mmHg 52%
    12:00 +19°C° 0 mm 4 mps 722 mmHg 45%
    13:00 +19°C° 0 mm 4 mps 721 mmHg 45%
    14:00 +19°C° 0 mm 4 mps 721 mmHg 45%
    15:00 +19°C° 0 mm 4 mps 720 mmHg 45%
    16:00 +17°C° 0 mm 4 mps 720 mmHg 56%
    17:00 +13°C° 0 mm 3 mps 720 mmHg 66%
    18:00 +12°C° 0 mm 2 mps 720 mmHg 77%
    19:00 +10°C° 0 mm 2 mps 720 mmHg 80%
    20:00 +9°C° 0 mm 2 mps 721 mmHg 83%
    21:00 +8°C° 0 mm 2 mps 721 mmHg 86%
    22:00 +8°C° 0 mm 2 mps 721 mmHg 85%
    23:00 +8°C° 0 mm 1 mps 721 mmHg 85%

    1 March, Wednesday

    Time Temperature Precipitation Wind Pressure Humidity
    00:00 +8°C° 0 mm 1 mps 722 mmHg 84%
    01:00 +8°C° 0 mm 1 mps 721 mmHg 84%
    02:00 +8°C° 0 mm 1 mps 721 mmHg 84%
    03:00 +7°C° 0 mm 1 mps 721 mmHg 83%
    04:00 +7°C° 0 mm 1 mps 721 mmHg 83%
    05:00 +7°C° 0 mm 1 mps 722 mmHg 82%
    06:00 +7°C° 0 mm 1 mps 722 mmHg 82%
    07:00 +10°C° 0 mm 1 mps 723 mmHg 70%
    08:00 +13°C° 0 mm 1 mps 723 mmHg 58%
    09:00 +16°C° 0 mm 1 mps 724 mmHg 46%
    10:00 +19°C° 0 mm 1 mps 724 mmHg 41%
    11:00 +21°C° 0 mm 1 mps 724 mmHg 37%
    12:00 +22°C° 0 mm 1 mps 724 mmHg 32%
    13:00 +21°C° 0 mm 2 mps 723 mmHg 33%
    14:00 +21°C° 0 mm 2 mps 723 mmHg 34%
    15:00 +21°C° 0 mm 3 mps 722 mmHg 35%
    16:00 +19°C° 0 mm 2 mps 722 mmHg 46%
    17:00 +16°C° 0 mm 2 mps 722 mmHg 57%
    18:00 +14°C° 0 mm 2 mps 721 mmHg 68%
    19:00 +12°C° 0 mm 1 mps 722 mmHg 72%
    20:00 +11°C° 0 mm 1 mps 722 mmHg 75%
    21:00 +10°C° 0 mm 1 mps 722 mmHg 79%
    22:00 +10°C° 0 mm 1 mps 722 mmHg 78%
    23:00 +10°C° 0 mm 1 mps 722 mmHg 76%

    2 March, Thursday

    Time Temperature Precipitation Wind Pressure Humidity
    00:00 +9°C° 0 mm 1 mps 722 mmHg 75%
    01:00 +9°C° 0 mm 1 mps 721 mmHg 75%
    02:00 +8°C° 0 mm 0 mps 721 mmHg 74%
    03:00 +7°C° 0 mm 0 mps 721 mmHg 74%
    04:00 +7°C° 0 mm 0 mps 721 mmHg 74%
    05:00 +7°C° 0 mm 0 mps 721 mmHg 74%
    06:00 +7°C° 0 mm 0 mps 721 mmHg 74%
    07:00 +10°C° 0 mm 0 mps 722 mmHg 63%
    08:00 +14°C° 0 mm 0 mps 722 mmHg 52%
    09:00 +17°C° 0 mm 0 mps 723 mmHg 41%
    10:00 +21°C° 0 mm 1 mps 723 mmHg 38%
    11:00 +22°C° 0 mm 1 mps 722 mmHg 36%
    12:00 +24°C° 0 mm 2 mps 722 mmHg 33%
    13:00 +24°C° 0 mm 2 mps 722 mmHg 35%
    14:00 +24°C° 0 mm 3 mps 721 mmHg 36%
    15:00 +24°C° 0 mm 3 mps 720 mmHg 38%
    16:00 +20°C° 0 mm 2 mps 720 mmHg 51%
    17:00 +16°C° 0 mm 2 mps 720 mmHg 65%
    18:00 +13°C° 0 mm 1 mps 720 mmHg 78%
    19:00 +13°C° 0 mm 1 mps 720 mmHg 80%
    20:00 +12°C° 0 mm 1 mps 720 mmHg 82%
    21:00 +11°C° 0 mm 1 mps 720 mmHg 84%
    22:00 +11°C° 0 mm 1 mps 720 mmHg 83%
    23:00 +11°C° 0 mm 1 mps 719 mmHg 82%

    3 March, Friday

    Time Temperature Precipitation Wind Pressure Humidity
    00:00 +10°C° 0 mm 1 mps 719 mmHg 81%
    01:00 +11°C° 0 mm 1 mps 719 mmHg 77%
    02:00 +11°C° 0 mm 1 mps 719 mmHg 73%
    03:00 +10°C° 0 mm 2 mps 718 mmHg 69%
    04:00 +10°C° 0 mm 2 mps 718 mmHg 68%
    05:00 +10°C° 0 mm 2 mps 718 mmHg 67%
    06:00 +10°C° 0 mm 2 mps 718 mmHg 66%
    07:00 +12°C° 0 mm 3 mps 719 mmHg 61%
    08:00 +14°C° 0 mm 3 mps 719 mmHg 57%
    09:00 +17°C° 0 mm 4 mps 720 mmHg 52%
    10:00 +17°C° 0 mm 5 mps 720 mmHg 51%
    11:00 +19°C° 0 mm 5 mps 720 mmHg 50%
    12:00 +19°C° 0 mm 6 mps 720 mmHg 48%
    13:00 +19°C° 0 mm 6 mps 719 mmHg 50%
    14:00 +19°C° 0 mm 6 mps 719 mmHg 52%
    15:00 +17°C° 0 mm 5 mps 718 mmHg 54%
    16:00 +15°C° 0 mm 4 mps 718 mmHg 64%
    17:00 +13°C° 0 mm 3 mps 718 mmHg 74%
    18:00 +12°C° 0 mm 2 mps 718 mmHg 84%
    19:00 +12°C° 0 mm 2 mps 718 mmHg 85%
    20:00 +10°C° 0 mm 2 mps 718 mmHg 87%
    21:00 +9°C° 0 mm 2 mps 718 mmHg 89%
    22:00 +9°C° 0 mm 2 mps 718 mmHg 86%
    23:00 +9°C° 0 mm 2 mps 717 mmHg 83%
    Show more